This is the latest recevied weather packets stored in our database for station/object PU5BHV. If no packets are shown the sender has not sent any weather packets the latest 1 day(s).
| Time | Temp. | Humidity | Pressure | Rain* | Wind** | Luminosity | Snow |
|---|---|---|---|---|---|---|---|
| 1777999885 | 28.89° C | 67% | 1018.5 hPa | 0 mm | 0.45 m/s, 283° | 498 W/m² | - |
| 1777999581 | 28.89° C | 66% | 1018.7 hPa | 0 mm | 0.45 m/s, 100° | 478 W/m² | - |
| 1777999279 | 29.44° C | 65% | 1018.8 hPa | 0 mm | 0 m/s | 514 W/m² | - |
| 1777998977 | 28.89° C | 66% | 1019.2 hPa | 0 mm | 0.45 m/s, 154° | 537 W/m² | - |
| 1777998674 | 28.89° C | 65% | 1018.8 hPa | 0 mm | 0.45 m/s, 317° | 535 W/m² | - |
| 1777998372 | 28.89° C | 64% | 1019.1 hPa | 0 mm | 0 m/s | 507 W/m² | - |
| 1777998069 | 28.33° C | 67% | 1019.1 hPa | 0 mm | 0 m/s | 516 W/m² | - |
| 1777997766 | 27.78° C | 67% | 1019.1 hPa | 0 mm | 0 m/s | 551 W/m² | - |
| 1777997463 | 27.78° C | 68% | 1019.5 hPa | 0 mm | 0.89 m/s, 339° | 585 W/m² | - |
| 1777997161 | 27.78° C | 68% | 1019.7 hPa | 0 mm | 0.45 m/s, 76° | 555 W/m² | - |
| 1777996858 | 27.78° C | 68% | 1019.5 hPa | 0 mm | 0.89 m/s, 48° | 567 W/m² | - |
| 1777996554 | 27.22° C | 71% | 1019.7 hPa | 0 mm | 0 m/s | 384 W/m² | - |
| 1777996251 | 27.78° C | 69% | 1019.8 hPa | 0 mm | 0.89 m/s, 323° | 239 W/m² | - |
| 1777995947 | 27.78° C | 70% | 1019.7 hPa | 0 mm | 0.45 m/s, 17° | 593 W/m² | - |
| 1777995643 | 27.78° C | 67% | 1020 hPa | 0 mm | 0 m/s | 702 W/m² | - |
| 1777995341 | 27.78° C | 70% | 1020 hPa | 0 mm | 0 m/s | 668 W/m² | - |
| 1777995038 | 27.22° C | 71% | 1019.9 hPa | 0 mm | 0 m/s | 614 W/m² | - |
| 1777994734 | 26.67° C | 71% | 1020.2 hPa | 0 mm | 0.45 m/s, 68° | 581 W/m² | - |
| 1777994430 | 27.22° C | 68% | 1020 hPa | 0 mm | 0 m/s | 580 W/m² | - |
| 1777994131 | 27.22° C | 69% | 1020.2 hPa | 0 mm | 0 m/s | 624 W/m² | - |
| 1777993829 | 27.22° C | 70% | 1020.2 hPa | 0 mm | 0.45 m/s, 111° | 466 W/m² | - |
| 1777993525 | 26.67° C | 71% | 1020.2 hPa | 0 mm | 0 m/s | 596 W/m² | - |
| 1777993221 | 27.22° C | 69% | 1020.2 hPa | 0 mm | 0.89 m/s, 52° | 595 W/m² | - |
| 1777992917 | 26.67° C | 71% | 1020.4 hPa | 0 mm | 0.45 m/s, 120° | 603 W/m² | - |
| 1777992616 | 26.67° C | 69% | 1020.7 hPa | 0 mm | 0.89 m/s, 204° | 648 W/m² | - |
* Rain latest hour (hover to see other rain measurements)
** Current wind speed in m/s (hover to see current wind gust speed)